| time (UTC) | temp F | wind direction | speed MPH | gust MPH | rain 1hr in | rain 24hr in | rain mn in | humidity % | barometer mb |
| 20260905202915 | 99 | 253 | 9.0 | 10.0 | 0.00 | 0.00 | 0.00 | 25 | 1013.6 |
| 20260905202415 | 99 | 183 | 5.0 | 9.0 | 0.00 | 0.00 | 0.00 | 26 | 1013.7 |
| 20260905201917 | 98 | 195 | 2.0 | 4.0 | 0.00 | 0.00 | 0.00 | 26 | 1013.7 |
| 20260905201416 | 98 | 107 | 1.0 | 4.0 | 0.00 | 0.00 | 0.00 | 26 | 1013.8 |
| 20260905200916 | 98 | 248 | 4.0 | 9.0 | 0.00 | 0.00 | 0.00 | 26 | 1013.9 |
| 20260905200415 | 98 | 151 | 1.0 | 4.0 | 0.00 | 0.00 | 0.00 | 27 | 1013.8 |
| 20260905195915 | 99 | 219 | 1.0 | 8.0 | 0.00 | 0.00 | 0.00 | 26 | 1013.9 |
| 20260905195415 | 99 | 211 | 5.0 | 9.0 | 0.00 | 0.00 | 0.00 | 26 | 1014.0 |
| 20260905194915 | 98 | 252 | 4.0 | 11.0 | 0.00 | 0.00 | 0.00 | 26 | 1014.1 |
| 20260905194415 | 98 | 261 | 5.0 | 7.0 | 0.00 | 0.00 | 0.00 | 26 | 1014.2 |
| 20260905193916 | 97 | 192 | 2.0 | 4.0 | 0.00 | 0.00 | 0.00 | 27 | 1014.2 |
| 20260905193415 | 97 | 182 | 4.0 | 7.0 | 0.00 | 0.00 | 0.00 | 27 | 1014.2 |
| 20260905192915 | 97 | 194 | 1.0 | 6.0 | 0.00 | 0.00 | 0.00 | 26 | 1014.3 |
| 20260905192415 | 96 | 171 | 1.0 | 5.0 | 0.00 | 0.00 | 0.00 | 28 | 1014.4 |
| 20260905191915 | 97 | 270 | 4.0 | 7.0 | 0.00 | 0.00 | 0.00 | 27 | 1014.5 |
| 20260905191415 | 97 | 227 | 6.0 | 8.0 | 0.00 | 0.00 | 0.00 | 29 | 1014.7 |
| 20260905190916 | 97 | 221 | 3.0 | 7.0 | 0.00 | 0.00 | 0.00 | 28 | 1014.7 |
| 20260905190415 | 98 | 240 | 6.0 | 8.0 | 0.00 | 0.00 | 0.00 | 27 | 1014.7 |
| 20260905185915 | 97 | 235 | 4.0 | 13.0 | 0.00 | 0.00 | 0.00 | 29 | 1014.8 |
| 20260905185416 | 96 | 265 | 10.0 | 13.0 | 0.00 | 0.00 | 0.00 | 29 | 1014.7 |
| 20260905184915 | 96 | 191 | 4.0 | 6.0 | 0.00 | 0.00 | 0.00 | 28 | 1014.9 |
| 20260905184415 | 97 | 194 | 2.0 | 9.0 | 0.00 | 0.00 | 0.00 | 27 | 1015.0 |
| 20260905183915 | 98 | 215 | 5.0 | 7.0 | 0.00 | 0.00 | 0.00 | 28 | 1015.0 |
| 20260905183415 | 97 | 205 | 3.0 | 4.0 | 0.00 | 0.00 | 0.00 | 28 | 1015.0 |
| 20260905182915 | 96 | 230 | 2.0 | 6.0 | 0.00 | 0.00 | 0.00 | 27 | 1015.1 |
| 20260905182415 | 97 | 125 | 0.0 | 8.0 | 0.00 | 0.00 | 0.00 | 28 | 1015.1 |
| 20260905181915 | 96 | 103 | 8.0 | 9.0 | 0.00 | 0.00 | 0.00 | 29 | 1015.1 |
| 20260905181415 | 96 | 141 | 5.0 | 10.0 | 0.00 | 0.00 | 0.00 | 28 | 1015.1 |
| 20260905180916 | 96 | 129 | 2.0 | 10.0 | 0.00 | 0.00 | 0.00 | 30 | 1015.1 |
| 20260905180416 | 95 | 349 | 2.0 | 7.0 | 0.00 | 0.00 | 0.00 | 30 | 1015.1 |
| 20260905175915 | 95 | 242 | 6.0 | 8.0 | 0.00 | 0.00 | 0.00 | 31 | 1015.2 |
| 20260905175415 | 95 | 240 | 1.0 | 5.0 | 0.00 | 0.00 | 0.00 | 30 | 1015.1 |
| 20260905174915 | 95 | 255 | 1.0 | 4.0 | 0.00 | 0.00 | 0.00 | 31 | 1015.2 |
| 20260905174416 | 95 | 231 | 2.0 | 5.0 | 0.00 | 0.00 | 0.00 | 31 | 1015.2 |
| 20260905173915 | 94 | 248 | 5.0 | 6.0 | 0.00 | 0.00 | 0.00 | 31 | 1015.2 |
| 20260905173415 | 94 | 134 | 4.0 | 5.0 | 0.00 | 0.00 | 0.00 | 31 | 1015.2 |
| 20260905172915 | 93 | 234 | 0.0 | 5.0 | 0.00 | 0.00 | 0.00 | 31 | 1015.2 |
| 20260905172417 | 94 | 190 | 3.0 | 9.0 | 0.00 | 0.00 | 0.00 | 32 | 1015.3 |
| 20260905171915 | 94 | 221 | 7.0 | 7.0 | 0.00 | 0.00 | 0.00 | 32 | 1015.3 |
| 20260905171415 | 94 | 214 | 2.0 | 4.0 | 0.00 | 0.00 | 0.00 | 33 | 1015.4 |
| 20260905170915 | 94 | 208 | 4.0 | 7.0 | 0.00 | 0.00 | 0.00 | 33 | 1015.3 |
| 20260905170416 | 93 | 210 | 4.0 | 7.0 | 0.00 | 0.00 | 0.00 | 33 | 1015.3 |
| 20260905165915 | 92 | 209 | 5.0 | 7.0 | 0.00 | 0.00 | 0.00 | 33 | 1015.4 |
| 20260905165415 | 92 | 138 | 0.0 | 4.0 | 0.00 | 0.00 | 0.00 | 34 | 1015.3 |
| 20260905164917 | 92 | 188 | 1.0 | 4.0 | 0.00 | 0.00 | 0.00 | 33 | 1015.3 |
| 20260905164415 | 92 | 102 | 2.0 | 5.0 | 0.00 | 0.00 | 0.00 | 32 | 1015.4 |
| 20260905163915 | 91 | 92 | 3.0 | 3.0 | 0.00 | 0.00 | 0.00 | 34 | 1015.4 |
| 20260905163420 | 91 | 136 | 0.0 | 4.0 | 0.00 | 0.00 | 0.00 | 33 | 1015.4 |
| 20260905162915 | 91 | 242 | 3.0 | 8.0 | 0.00 | 0.00 | 0.00 | 34 | 1015.4 |
| 20260905162417 | 91 | 242 | 5.0 | 8.0 | 0.00 | 0.00 | 0.00 | 34 | 1015.3 |
| 20260905161916 | 90 | 246 | 6.0 | 6.0 | 0.00 | 0.00 | 0.00 | 35 | 1015.3 |
| 20260905161415 | 90 | 123 | 0.0 | 4.0 | 0.00 | 0.00 | 0.00 | 35 | 1015.3 |
| 20260905160915 | 90 | 131 | 0.0 | 4.0 | 0.00 | 0.00 | 0.00 | 36 | 1015.3 |
| 20260905160415 | 89 | 152 | 0.0 | 2.0 | 0.00 | 0.00 | 0.00 | 35 | 1015.3 |
| 20260905155915 | 90 | 200 | 0.0 | 5.0 | 0.00 | 0.00 | 0.00 | 36 | 1015.2 |
| 20260905155416 | 90 | 211 | 1.0 | 3.0 | 0.00 | 0.00 | 0.00 | 35 | 1015.0 |
| 20260905154915 | 89 | 174 | 0.0 | 3.0 | 0.00 | 0.00 | 0.00 | 37 | 1015.0 |
| 20260905154415 | 88 | 174 | 0.0 | 2.0 | 0.00 | 0.00 | 0.00 | 38 | 1015.1 |
| 20260905153915 | 89 | 188 | 2.0 | 4.0 | 0.00 | 0.00 | 0.00 | 37 | 1015.1 |
| 20260905153415 | 88 | 106 | 1.0 | 3.0 | 0.00 | 0.00 | 0.00 | 39 | 1015.0 |
| 20260905152915 | 88 | 132 | 0.0 | 5.0 | 0.00 | 0.00 | 0.00 | 39 | 1015.0 |
| 20260905152415 | 87 | 148 | 0.0 | 2.0 | 0.00 | 0.00 | 0.00 | 41 | 1015.0 |
| 20260905151915 | 86 | 148 | 0.0 | 2.0 | 0.00 | 0.00 | 0.00 | 42 | 1015.0 |
| 20260905151415 | 86 | 197 | 1.0 | 2.0 | 0.00 | 0.00 | 0.00 | 42 | 1015.0 |
| 20260905150917 | 86 | 194 | 2.0 | 3.0 | 0.00 | 0.00 | 0.00 | 42 | 1015.0 |
| 20260905150417 | 86 | 180 | 0.0 | 2.0 | 0.00 | 0.00 | 0.00 | 43 | 1015.0 |
| 20260905145915 | 85 | 180 | 2.0 | 2.0 | 0.00 | 0.00 | 0.00 | 43 | 1015.0 |
| 20260905145417 | 85 | 170 | 0.0 | 1.0 | 0.00 | 0.00 | 0.00 | 43 | 1014.9 |
| 20260905144915 | 85 | 180 | 0.0 | 2.0 | 0.00 | 0.00 | 0.00 | 43 | 1014.9 |
| 20260905144415 | 85 | 148 | 1.0 | 2.0 | 0.00 | 0.00 | 0.00 | 44 | 1015.0 |
| 20260905143915 | 84 | 138 | 0.0 | 1.0 | 0.00 | 0.00 | 0.00 | 48 | 1014.9 |
| 20260905143415 | 83 | 138 | 0.0 | 1.0 | 0.00 | 0.00 | 0.00 | 49 | 1014.9 |
| 20260905142915 | 83 | 138 | 0.0 | 0.0 | 0.00 | 0.00 | 0.00 | 49 | 1014.9 |
| 20260905142415 | 84 | 138 | 0.0 | 0.0 | 0.00 | 0.00 | 0.00 | 47 | 1014.8 |
| 20260905141915 | 84 | 138 | 0.0 | 1.0 | 0.00 | 0.00 | 0.00 | 46 | 1014.9 |
| 20260905141415 | 84 | 133 | 1.0 | 1.0 | 0.00 | 0.00 | 0.00 | 44 | 1014.7 |
| 20260905140915 | 84 | 121 | 1.0 | 2.0 | 0.00 | 0.00 | 0.00 | 44 | 1014.7 |
| 20260905140415 | 84 | 101 | 1.0 | 1.0 | 0.00 | 0.00 | 0.00 | 44 | 1014.6 |
| 20260905135915 | 84 | 118 | 0.0 | 3.0 | 0.00 | 0.00 | 0.00 | 46 | 1014.6 |
| 20260905135415 | 83 | 126 | 0.0 | 3.0 | 0.00 | 0.00 | 0.00 | 45 | 1014.5 |
| 20260905134917 | 83 | 113 | 1.0 | 3.0 | 0.00 | 0.00 | 0.00 | 45 | 1014.5 |
| 20260905134415 | 82 | 115 | 0.0 | 3.0 | 0.00 | 0.00 | 0.00 | 47 | 1014.4 |
| 20260905133917 | 82 | 110 | 2.0 | 4.0 | 0.00 | 0.00 | 0.00 | 47 | 1014.3 |
| 20260905133415 | 81 | 116 | 2.0 | 3.0 | 0.00 | 0.00 | 0.00 | 48 | 1014.3 |
| 20260905132915 | 81 | 103 | 2.0 | 3.0 | 0.00 | 0.00 | 0.00 | 48 | 1014.1 |
| 20260905132415 | 80 | 101 | 2.0 | 4.0 | 0.00 | 0.00 | 0.00 | 49 | 1014.2 |
| 20260905131915 | 80 | 111 | 2.0 | 3.0 | 0.00 | 0.00 | 0.00 | 50 | 1014.2 |
| 20260905131415 | 80 | 105 | 1.0 | 1.0 | 0.00 | 0.00 | 0.00 | 50 | 1014.1 |
| 20260905130916 | 79 | 125 | 0.0 | 1.0 | 0.00 | 0.00 | 0.00 | 51 | 1014.1 |
| 20260905130415 | 79 | 125 | 0.0 | 1.0 | 0.00 | 0.00 | 0.00 | 51 | 1014.0 |
| 20260905125915 | 79 | 125 | 0.0 | 1.0 | 0.00 | 0.00 | 0.00 | 50 | 1013.9 |
| 20260905125416 | 79 | 125 | 0.0 | 1.0 | 0.00 | 0.00 | 0.00 | 49 | 1013.9 |
| 20260905124915 | 80 | 125 | 0.0 | 0.0 | 0.00 | 0.00 | 0.00 | 49 | 1013.9 |
| 20260905124415 | 81 | 124 | 0.0 | 1.0 | 0.00 | 0.00 | 0.00 | 48 | 1013.9 |
| 20260905123915 | 81 | 124 | 0.0 | 1.0 | 0.00 | 0.00 | 0.00 | 47 | 1013.9 |
| 20260905123415 | 82 | 134 | 0.0 | 2.0 | 0.00 | 0.00 | 0.00 | 46 | 1013.8 |
| 20260905122915 | 82 | 113 | 1.0 | 3.0 | 0.00 | 0.00 | 0.00 | 45 | 1013.8 |
| 20260905122415 | 82 | 107 | 1.0 | 3.0 | 0.00 | 0.00 | 0.00 | 45 | 1013.8 |
| 20260905121915 | 82 | 96 | 1.0 | 3.0 | 0.00 | 0.00 | 0.00 | 45 | 1013.8 |
| 20260905121416 | 82 | 132 | 1.0 | 3.0 | 0.00 | 0.00 | 0.00 | 45 | 1013.9 |
| 20260905120915 | 82 | 128 | 0.0 | 2.0 | 0.00 | 0.00 | 0.00 | 45 | 1013.9 |
| 20260905120415 | 82 | 124 | 1.0 | 3.0 | 0.00 | 0.00 | 0.00 | 44 | 1013.9 |
| 20260905115916 | 82 | 110 | 2.0 | 3.0 | 0.00 | 0.00 | 0.00 | 45 | 1013.8 |
| 20260905115415 | 82 | 115 | 1.0 | 5.0 | 0.00 | 0.00 | 0.00 | 45 | 1013.8 |
| 20260905114915 | 81 | 121 | 2.0 | 3.0 | 0.00 | 0.00 | 0.00 | 46 | 1013.8 |
| 20260905114415 | 81 | 112 | 2.0 | 3.0 | 0.00 | 0.00 | 0.00 | 48 | 1013.8 |
| 20260905113915 | 80 | 111 | 3.0 | 3.0 | 0.00 | 0.00 | 0.00 | 49 | 1013.7 |
| 20260905113415 | 81 | 113 | 0.0 | 0.0 | 0.00 | 0.00 | 0.00 | 49 | 1013.8 |
| 20260905112917 | 81 | 144 | 0.0 | 1.0 | 0.00 | 0.00 | 0.00 | 49 | 1013.7 |
| 20260905112420 | 81 | 153 | 0.0 | 3.0 | 0.00 | 0.00 | 0.00 | 49 | 1013.7 |
| 20260905111916 | 81 | 189 | 3.0 | 4.0 | 0.00 | 0.00 | 0.00 | 48 | 1013.7 |
| 20260905111415 | 80 | 0 | 0.0 | 0.0 | 0.00 | 0.00 | 0.00 | 50 | 1013.5 |
| 20260905110915 | 81 | 0 | 0.0 | 0.0 | 0.00 | 0.00 | 0.00 | 48 | 1013.5 |
| 20260905110415 | 81 | 0 | 0.0 | 0.0 | 0.00 | 0.00 | 0.00 | 47 | 1013.4 |
| 20260905105915 | 81 | 0 | 0.0 | 2.0 | 0.00 | 0.00 | 0.00 | 46 | 1013.5 |
| 20260905105415 | 82 | 0 | 1.0 | 1.0 | 0.00 | 0.00 | 0.00 | 45 | 1013.4 |
| 20260905104915 | 82 | 0 | 0.0 | 2.0 | 0.00 | 0.00 | 0.00 | 45 | 1013.4 |
| 20260905104416 | 82 | 5 | 0.0 | 2.0 | 0.00 | 0.00 | 0.00 | 45 | 1013.4 |
| 20260905103915 | 82 | 5 | 0.0 | 2.0 | 0.00 | 0.00 | 0.00 | 45 | 1013.4 |
| 20260905103415 | 82 | 23 | 1.0 | 4.0 | 0.00 | 0.00 | 0.00 | 45 | 1013.4 |
| 20260905102915 | 81 | 355 | 4.0 | 3.0 | 0.00 | 0.00 | 0.00 | 47 | 1013.4 |
| 20260905102415 | 82 | 16 | 0.0 | 1.0 | 0.00 | 0.00 | 0.00 | 46 | 1013.3 |
| 20260905101915 | 82 | 16 | 0.0 | 0.0 | 0.00 | 0.00 | 0.00 | 45 | 1013.3 |
| 20260905101415 | 83 | 16 | 0.0 | 1.0 | 0.00 | 0.00 | 0.00 | 45 | 1013.2 |
| 20260905100915 | 83 | 30 | 1.0 | 1.0 | 0.00 | 0.00 | 0.00 | 44 | 1013.3 |
| 20260905100415 | 82 | 10 | 1.0 | 3.0 | 0.00 | 0.00 | 0.00 | 46 | 1013.3 |
| 20260905095915 | 82 | 14 | 2.0 | 3.0 | 0.00 | 0.00 | 0.00 | 47 | 1013.3 |
| 20260905095415 | 81 | 5 | 2.0 | 2.0 | 0.00 | 0.00 | 0.00 | 50 | 1013.3 |
| 20260905094915 | 82 | 17 | 0.0 | 1.0 | 0.00 | 0.00 | 0.00 | 48 | 1013.4 |
| 20260905094415 | 82 | 38 | 0.0 | 1.0 | 0.00 | 0.00 | 0.00 | 47 | 1013.4 |
| 20260905093915 | 83 | 38 | 0.0 | 0.0 | 0.00 | 0.00 | 0.00 | 46 | 1013.4 |
| 20260905093415 | 83 | 38 | 0.0 | 0.0 | 0.00 | 0.00 | 0.00 | 46 | 1013.4 |
| 20260905092915 | 83 | 38 | 0.0 | 0.0 | 0.00 | 0.00 | 0.00 | 47 | 1013.4 |
| 20260905092415 | 83 | 38 | 0.0 | 0.0 | 0.00 | 0.00 | 0.00 | 46 | 1013.4 |
| 20260905091915 | 83 | 38 | 0.0 | 0.0 | 0.00 | 0.00 | 0.00 | 45 | 1013.5 |
| 20260905091415 | 83 | 37 | 0.0 | 0.0 | 0.00 | 0.00 | 0.00 | 45 | 1013.5 |
| 20260905090917 | 83 | 38 | 0.0 | 0.0 | 0.00 | 0.00 | 0.00 | 46 | 1013.5 |
| 20260905090415 | 83 | 38 | 0.0 | 0.0 | 0.00 | 0.00 | 0.00 | 47 | 1013.5 |
| 20260905085915 | 83 | 38 | 0.0 | 0.0 | 0.00 | 0.00 | 0.00 | 46 | 1013.5 |
| 20260905085415 | 82 | 38 | 0.0 | 0.0 | 0.00 | 0.00 | 0.00 | 46 | 1013.5 |
| 20260905084915 | 82 | 38 | 0.0 | 0.0 | 0.00 | 0.00 | 0.00 | 46 | 1013.6 |
| 20260905084416 | 82 | 38 | 0.0 | 0.0 | 0.00 | 0.00 | 0.00 | 46 | 1013.6 |
| 20260905083915 | 82 | 38 | 0.0 | 0.0 | 0.00 | 0.00 | 0.00 | 46 | 1013.6 |
| 20260905083415 | 82 | 38 | 0.0 | 0.0 | 0.00 | 0.00 | 0.00 | 45 | 1013.6 |
| 20260905082915 | 83 | 38 | 0.0 | 0.0 | 0.00 | 0.00 | 0.00 | 44 | 1013.5 |
| 20260905082415 | 83 | 38 | 0.0 | 0.0 | 0.00 | 0.00 | 0.00 | 45 | 1013.5 |
| 20260905081915 | 83 | 38 | 0.0 | 0.0 | 0.00 | 0.00 | 0.00 | 43 | 1013.6 |
| 20260905081415 | 84 | 38 | 0.0 | 0.0 | 0.00 | 0.00 | 0.00 | 43 | 1013.6 |
| 20260905080915 | 85 | 38 | 0.0 | 0.0 | 0.00 | 0.00 | 0.00 | 40 | 1013.6 |
| 20260905080415 | 85 | 38 | 0.0 | 0.0 | 0.00 | 0.00 | 0.00 | 39 | 1013.6 |
| 20260905075915 | 85 | 38 | 0.0 | 0.0 | 0.00 | 0.00 | 0.00 | 39 | 1013.7 |
| 20260905075415 | 85 | 37 | 0.0 | 0.0 | 0.00 | 0.00 | 0.00 | 39 | 1013.6 |
| 20260905074915 | 86 | 37 | 0.0 | 0.0 | 0.00 | 0.00 | 0.00 | 38 | 1013.6 |
| 20260905074417 | 85 | 30 | 0.0 | 0.0 | 0.00 | 0.00 | 0.00 | 38 | 1013.6 |
| 20260905073916 | 86 | 39 | 0.0 | 0.0 | 0.00 | 0.00 | 0.00 | 39 | 1013.6 |
| 20260905073415 | 86 | 32 | 0.0 | 0.0 | 0.00 | 0.00 | 0.00 | 38 | 1013.5 |
| 20260905072916 | 86 | 33 | 0.0 | 0.0 | 0.00 | 0.00 | 0.00 | 39 | 1013.5 |
| 20260905072415 | 86 | 30 | 0.0 | 0.0 | 0.00 | 0.00 | 0.00 | 38 | 1013.5 |
| 20260905071915 | 86 | 22 | 0.0 | 0.0 | 0.00 | 0.00 | 0.00 | 38 | 1013.5 |
| 20260905071415 | 86 | 18 | 0.0 | 0.0 | 0.00 | 0.00 | 0.00 | 38 | 1013.5 |
| 20260905070915 | 86 | 355 | 0.0 | 2.0 | 0.00 | 0.00 | 0.00 | 38 | 1013.5 |
| 20260905070416 | 86 | 355 | 2.0 | 3.0 | 0.00 | 0.00 | 0.00 | 39 | 1013.5 |
| 20260905065915 | 86 | 10 | 0.0 | 3.0 | 0.00 | 0.00 | 0.00 | 39 | 1013.5 |
| 20260905065415 | 87 | 12 | 0.0 | 1.0 | 0.00 | 0.00 | 0.00 | 39 | 1013.4 |
| 20260905064915 | 87 | 29 | 1.0 | 1.0 | 0.00 | 0.00 | 0.00 | 37 | 1013.4 |
| 20260905064415 | 87 | 38 | 0.0 | 2.0 | 0.00 | 0.00 | 0.00 | 37 | 1013.4 |
| 20260905063915 | 87 | 40 | 0.0 | 3.0 | 0.00 | 0.00 | 0.00 | 37 | 1013.4 |
| 20260905063415 | 87 | 46 | 1.0 | 2.0 | 0.00 | 0.00 | 0.00 | 37 | 1013.3 |
| 20260905062915 | 87 | 49 | 1.0 | 3.0 | 0.00 | 0.00 | 0.00 | 37 | 1013.4 |
| 20260905062417 | 87 | 34 | 1.0 | 2.0 | 0.00 | 0.00 | 0.00 | 36 | 1013.3 |
| 20260905061915 | 88 | 0 | 0.0 | 2.0 | 0.00 | 0.00 | 0.00 | 37 | 1013.2 |
| 20260905061415 | 88 | 348 | 0.0 | 2.0 | 0.00 | 0.00 | 0.00 | 36 | 1013.2 |
| 20260905060916 | 88 | 338 | 2.0 | 2.0 | 0.00 | 0.00 | 0.00 | 36 | 1013.2 |
| 20260905060415 | 88 | 331 | 1.0 | 2.0 | 0.00 | 0.00 | 0.00 | 36 | 1013.1 |
| 20260905055915 | 88 | 346 | 0.0 | 3.0 | 0.00 | 0.00 | 0.00 | 36 | 1013.1 |
| 20260905055415 | 88 | 313 | 0.0 | 2.0 | 0.00 | 0.00 | 0.00 | 36 | 1013.1 |
| 20260905054915 | 88 | 319 | 1.0 | 3.0 | 0.00 | 0.00 | 0.00 | 37 | 1013.1 |
| 20260905054416 | 88 | 337 | 2.0 | 3.0 | 0.00 | 0.00 | 0.00 | 38 | 1013.0 |
| 20260905053915 | 88 | 349 | 2.0 | 2.0 | 0.00 | 0.00 | 0.00 | 38 | 1013.0 |
| 20260905053415 | 89 | 337 | 0.0 | 2.0 | 0.00 | 0.00 | 0.00 | 37 | 1013.0 |
| 20260905052915 | 89 | 355 | 2.0 | 2.0 | 0.00 | 0.00 | 0.00 | 36 | 1013.0 |
| 20260905052415 | 90 | 297 | 0.0 | 0.0 | 0.00 | 0.00 | 0.00 | 35 | 1013.0 |
| 20260905051915 | 90 | 297 | 0.0 | 1.0 | 0.00 | 0.00 | 0.00 | 36 | 1013.0 |
| 20260905051415 | 90 | 294 | 0.0 | 3.0 | 0.00 | 0.00 | 0.00 | 37 | 1012.9 |
| 20260905050915 | 90 | 246 | 1.0 | 3.0 | 0.00 | 0.00 | 0.00 | 38 | 1012.9 |
| 20260905050417 | 90 | 256 | 0.0 | 3.0 | 0.00 | 0.00 | 0.00 | 39 | 1012.9 |
| 20260905045915 | 90 | 245 | 0.0 | 1.0 | 0.00 | 0.00 | 0.00 | 38 | 1012.9 |
| 20260905045415 | 90 | 243 | 0.0 | 4.0 | 0.00 | 0.00 | 0.00 | 38 | 1012.8 |
| 20260905044915 | 90 | 269 | 4.0 | 6.0 | 0.00 | 0.00 | 0.00 | 40 | 1012.8 |
| 20260905044415 | 91 | 247 | 3.0 | 3.0 | 0.00 | 0.00 | 0.00 | 39 | 1012.7 |
| 20260905043915 | 91 | 157 | 0.0 | 1.0 | 0.00 | 0.00 | 0.00 | 38 | 1012.7 |
| 20260905043416 | 91 | 151 | 0.0 | 2.0 | 0.00 | 0.00 | 0.00 | 39 | 1012.7 |
| 20260905042916 | 90 | 129 | 0.0 | 0.0 | 0.00 | 0.00 | 0.00 | 39 | 1012.6 |
| 20260905042416 | 90 | 129 | 0.0 | 1.0 | 0.00 | 0.00 | 0.00 | 39 | 1012.6 |
| 20260905041915 | 90 | 26 | 0.0 | 0.0 | 0.00 | 0.00 | 0.00 | 39 | 1012.5 |
| 20260905041416 | 90 | 26 | 0.0 | 0.0 | 0.00 | 0.00 | 0.00 | 40 | 1012.4 |
| 20260905040916 | 90 | 26 | 0.0 | 0.0 | 0.00 | 0.00 | 0.00 | 40 | 1012.5 |
| 20260905040415 | 90 | 26 | 0.0 | 0.0 | 0.00 | 0.00 | 0.00 | 40 | 1012.4 |
| 20260905035915 | 90 | 26 | 0.0 | 0.0 | 0.00 | 0.00 | 0.00 | 39 | 1012.3 |
| 20260905035415 | 90 | 26 | 0.0 | 0.0 | 0.00 | 0.00 | 0.00 | 39 | 1012.3 |
| 20260905034915 | 90 | 26 | 0.0 | 0.0 | 0.00 | 0.00 | 0.00 | 39 | 1012.3 |
| 20260905034415 | 90 | 26 | 0.0 | 0.0 | 0.00 | 0.00 | 0.00 | 39 | 1012.2 |
| 20260905033915 | 90 | 26 | 0.0 | 0.0 | 0.00 | 0.00 | 0.00 | 38 | 1012.2 |
| 20260905033416 | 90 | 26 | 0.0 | 0.0 | 0.00 | 0.00 | 0.00 | 38 | 1012.2 |
| 20260905032915 | 90 | 26 | 0.0 | 0.0 | 0.00 | 0.00 | 0.00 | 37 | 1012.1 |
| 20260905032415 | 90 | 26 | 0.0 | 2.0 | 0.00 | 0.00 | 0.00 | 37 | 1012.1 |
| 20260905031916 | 90 | 26 | 1.0 | 2.0 | 0.00 | 0.00 | 0.00 | 37 | 1012.0 |
| 20260905031416 | 90 | 19 | 0.0 | 2.0 | 0.00 | 0.00 | 0.00 | 37 | 1011.9 |
| 20260905030915 | 90 | 19 | 2.0 | 2.0 | 0.00 | 0.00 | 0.00 | 37 | 1011.9 |
| 20260905030416 | 90 | 338 | 0.0 | 1.0 | 0.00 | 0.00 | 0.00 | 37 | 1011.8 |
| 20260905025915 | 90 | 338 | 0.0 | 1.0 | 0.00 | 0.00 | 0.00 | 36 | 1011.8 |
| 20260905025417 | 91 | 338 | 0.0 | 1.0 | 0.00 | 0.00 | 0.00 | 36 | 1011.7 |
| 20260905024916 | 91 | 338 | 0.0 | 0.0 | 0.00 | 0.00 | 0.00 | 36 | 1011.7 |
| 20260905024415 | 91 | 331 | 0.0 | 1.0 | 0.00 | 0.00 | 0.00 | 36 | 1011.6 |
| 20260905023916 | 91 | 325 | 0.0 | 1.0 | 0.00 | 0.00 | 0.00 | 36 | 1011.6 |
| 20260905023415 | 91 | 325 | 1.0 | 2.0 | 0.00 | 0.00 | 0.00 | 35 | 1011.6 |
| 20260905022916 | 91 | 318 | 1.0 | 2.0 | 0.00 | 0.00 | 0.00 | 35 | 1011.5 |
| 20260905022415 | 91 | 292 | 1.0 | 1.0 | 0.00 | 0.00 | 0.00 | 35 | 1011.4 |
| 20260905021915 | 91 | 290 | 0.0 | 1.0 | 0.00 | 0.00 | 0.00 | 35 | 1011.4 |
| 20260905021415 | 92 | 306 | 0.0 | 1.0 | 0.00 | 0.00 | 0.00 | 33 | 1011.4 |
| 20260905020915 | 92 | 306 | 0.0 | 0.0 | 0.00 | 0.00 | 0.00 | 33 | 1011.3 |
| 20260905020416 | 92 | 306 | 0.0 | 1.0 | 0.00 | 0.00 | 0.00 | 33 | 1011.3 |
| 20260905015915 | 92 | 305 | 0.0 | 1.0 | 0.00 | 0.00 | 0.00 | 33 | 1011.3 |
| 20260905015416 | 93 | 304 | 0.0 | 1.0 | 0.00 | 0.00 | 0.00 | 32 | 1011.2 |
| 20260905014915 | 94 | 307 | 0.0 | 2.0 | 0.00 | 0.00 | 0.00 | 31 | 1011.2 |
| 20260905014415 | 95 | 267 | 0.0 | 4.0 | 0.00 | 0.00 | 0.00 | 30 | 1011.2 |
| 20260905013915 | 95 | 236 | 2.0 | 5.0 | 0.00 | 0.00 | 0.00 | 29 | 1011.2 |
| 20260905013415 | 95 | 244 | 1.0 | 6.0 | 0.00 | 0.00 | 0.00 | 29 | 1011.2 |
| 20260905012916 | 95 | 213 | 3.0 | 6.0 | 0.00 | 0.00 | 0.00 | 29 | 1011.1 |
| 20260905012415 | 95 | 220 | 0.0 | 4.0 | 0.00 | 0.00 | 0.00 | 29 | 1011.1 |
| 20260905011915 | 95 | 234 | 2.0 | 4.0 | 0.00 | 0.00 | 0.00 | 29 | 1011.1 |
| 20260905011415 | 95 | 211 | 1.0 | 2.0 | 0.00 | 0.00 | 0.00 | 29 | 1011.1 |
| 20260905010915 | 96 | 164 | 1.0 | 2.0 | 0.00 | 0.00 | 0.00 | 29 | 1011.0 |
| 20260905010416 | 96 | 0 | 0.0 | 4.0 | 0.00 | 0.00 | 0.00 | 29 | 1011.0 |
| 20260905005915 | 96 | 236 | 2.0 | 6.0 | 0.00 | 0.00 | 0.00 | 29 | 1011.1 |
| 20260905005415 | 96 | 231 | 1.0 | 7.0 | 0.00 | 0.00 | 0.00 | 29 | 1011.1 |
| 20260905004915 | 97 | 240 | 4.0 | 8.0 | 0.00 | 0.00 | 0.00 | 29 | 1011.1 |
| 20260905004415 | 97 | 223 | 4.0 | 5.0 | 0.00 | 0.00 | 0.00 | 29 | 1011.2 |
| 20260905003915 | 97 | 240 | 1.0 | 5.0 | 0.00 | 0.00 | 0.00 | 29 | 1011.2 |
| 20260905003415 | 97 | 236 | 5.0 | 6.0 | 0.00 | 0.00 | 0.00 | 29 | 1011.2 |
| 20260905002915 | 97 | 269 | 3.0 | 8.0 | 0.00 | 0.00 | 0.00 | 29 | 1011.2 |
| 20260905002416 | 97 | 254 | 8.0 | 8.0 | 0.00 | 0.00 | 0.00 | 30 | 1011.2 |
| 20260905001915 | 97 | 251 | 3.0 | 5.0 | 0.00 | 0.00 | 0.00 | 30 | 1011.2 |
| 20260905001415 | 97 | 196 | 2.0 | 4.0 | 0.00 | 0.00 | 0.00 | 29 | 1011.3 |
| 20260905000915 | 97 | 216 | 2.0 | 4.0 | 0.00 | 0.00 | 0.00 | 29 | 1011.3 |
| 20260905000417 | 97 | 102 | 1.0 | 2.0 | 0.00 | 0.00 | 0.00 | 30 | 1011.3 |
| 20260904235915 | 97 | 172 | 0.0 | 10.0 | 0.00 | 0.00 | 0.00 | 29 | 1011.3 |
| 20260904235415 | 98 | 239 | 6.0 | 6.0 | 0.00 | 0.00 | 0.00 | 29 | 1011.3 |
| 20260904234915 | 98 | 235 | 2.0 | 9.0 | 0.00 | 0.00 | 0.00 | 28 | 1011.3 |
| 20260904234415 | 98 | 237 | 4.0 | 6.0 | 0.00 | 0.00 | 0.00 | 29 | 1011.3 |
| 20260904233915 | 98 | 188 | 4.0 | 9.0 | 0.00 | 0.00 | 0.00 | 28 | 1011.3 |
| 20260904233415 | 98 | 225 | 3.0 | 9.0 | 0.00 | 0.00 | 0.00 | 29 | 1011.3 |
| 20260904232915 | 98 | 180 | 7.0 | 13.0 | 0.00 | 0.00 | 0.00 | 28 | 1011.4 |
| 20260904232415 | 98 | 177 | 9.0 | 7.0 | 0.00 | 0.00 | 0.00 | 29 | 1011.4 |
| 20260904231915 | 98 | 163 | 3.0 | 4.0 | 0.00 | 0.00 | 0.00 | 29 | 1011.5 |
| 20260904231417 | 98 | 202 | 2.0 | 7.0 | 0.00 | 0.00 | 0.00 | 29 | 1011.6 |
| 20260904230916 | 98 | 221 | 3.0 | 12.0 | 0.00 | 0.00 | 0.00 | 29 | 1011.5 |
| 20260904230415 | 98 | 199 | 7.0 | 9.0 | 0.00 | 0.00 | 0.00 | 29 | 1011.5 |
| 20260904225915 | 98 | 189 | 7.0 | 11.0 | 0.00 | 0.00 | 0.00 | 28 | 1011.6 |
| 20260904225415 | 98 | 211 | 7.0 | 8.0 | 0.00 | 0.00 | 0.00 | 28 | 1011.6 |
| 20260904224915 | 99 | 245 | 7.0 | 12.0 | 0.00 | 0.00 | 0.00 | 28 | 1011.7 |
| 20260904224415 | 99 | 236 | 5.0 | 9.0 | 0.00 | 0.00 | 0.00 | 27 | 1011.7 |
| 20260904223915 | 99 | 252 | 7.0 | 10.0 | 0.00 | 0.00 | 0.00 | 27 | 1011.7 |
| 20260904223415 | 98 | 202 | 3.0 | 14.0 | 0.00 | 0.00 | 0.00 | 28 | 1011.7 |
| 20260904222915 | 98 | 279 | 4.0 | 5.0 | 0.00 | 0.00 | 0.00 | 28 | 1011.7 |
| 20260904222415 | 99 | 229 | 2.0 | 4.0 | 0.00 | 0.00 | 0.00 | 28 | 1011.8 |
| 20260904221915 | 97 | 223 | 0.0 | 5.0 | 0.00 | 0.00 | 0.00 | 29 | 1012.0 |
| 20260904221416 | 98 | 216 | 4.0 | 7.0 | 0.00 | 0.00 | 0.00 | 28 | 1012.0 |
| 20260904220915 | 97 | 202 | 2.0 | 6.0 | 0.00 | 0.00 | 0.00 | 28 | 1012.1 |
| 20260904220415 | 97 | 146 | 1.0 | 7.0 | 0.00 | 0.00 | 0.00 | 28 | 1012.1 |
| 20260904215915 | 97 | 247 | 1.0 | 7.0 | 0.00 | 0.00 | 0.00 | 27 | 1012.2 |
| 20260904215415 | 97 | 158 | 3.0 | 9.0 | 0.00 | 0.00 | 0.00 | 30 | 1012.3 |
| 20260904214915 | 97 | 192 | 7.0 | 10.0 | 0.00 | 0.00 | 0.00 | 30 | 1012.3 |
| 20260904214415 | 97 | 220 | 6.0 | 9.0 | 0.00 | 0.00 | 0.00 | 30 | 1012.4 |
| 20260904213916 | 98 | 261 | 3.0 | 6.0 | 0.00 | 0.00 | 0.00 | 29 | 1012.4 |
| 20260904213415 | 97 | 214 | 5.0 | 7.0 | 0.00 | 0.00 | 0.00 | 30 | 1012.5 |
| 20260904212916 | 98 | 355 | 4.0 | 5.0 | 0.00 | 0.00 | 0.00 | 29 | 1012.5 |
| 20260904212415 | 98 | 268 | 5.0 | 10.0 | 0.00 | 0.00 | 0.00 | 30 | 1012.7 |
| 20260904211915 | 98 | 246 | 10.0 | 15.0 | 0.00 | 0.00 | 0.00 | 31 | 1012.7 |
| 20260904211415 | 98 | 223 | 6.0 | 15.0 | 0.00 | 0.00 | 0.00 | 31 | 1012.7 |
| 20260904210915 | 97 | 188 | 2.0 | 8.0 | 0.00 | 0.00 | 0.00 | 32 | 1012.7 |
| 20260904210415 | 97 | 213 | 7.0 | 12.0 | 0.00 | 0.00 | 0.00 | 31 | 1012.8 |
| 20260904205916 | 97 | 263 | 4.0 | 7.0 | 0.00 | 0.00 | 0.00 | 31 | 1012.8 |
| 20260904205415 | 97 | 229 | 1.0 | 9.0 | 0.00 | 0.00 | 0.00 | 32 | 1012.9 |
| 20260904204915 | 97 | 184 | 5.0 | 11.0 | 0.00 | 0.00 | 0.00 | 33 | 1012.9 |
| 20260904204415 | 96 | 114 | 3.0 | 4.0 | 0.00 | 0.00 | 0.00 | 34 | 1013.0 |
| 20260904203915 | 96 | 229 | 0.0 | 8.0 | 0.00 | 0.00 | 0.00 | 34 | 1013.1 |
| 20260904203415 | 96 | 157 | 3.0 | 7.0 | 0.00 | 0.00 | 0.00 | 34 | 1013.2 |